User: anonymous   Login
Location: Caltech
(34.1382°N, 118.1253°W)
Time: 04:36:55
(UTC-07:00)
Language:

Cosmos 1975 - Orbit

View from above orbital plane
View from above orbital plane
View from above satellite
View from above satellite

Ground track
Ground track

The orbit data is extracted from the following two-line orbital elements,

1 19573U 88093A   16239.20710993  .00000101  00000-0  52284-5 0  9993
2 19573  82.5184 270.7953 0013525 217.2806 142.7483 15.03802671515474
Epoch (UTC): 26 August 2016 04:58:14
Eccentricity: 0.0013525
inclination: 82.5184°
perigee height: 546 km
apogee height: 564 km
right ascension of ascending node: 270.7953°
argument of perigee: 217.2806°
revolutions per day: 15.03802671
mean anomaly at epoch: 142.7483°
orbit number at epoch: 51547

The dashed part of the orbit path shows where the satellite is in the earth's shadow,  

DLR